User: anonymous   Login
Location: Unspecified
(0.0000°N, 0.0000°E)
Time: 11:54:49
(UTC+00:00)
Language:

Telecom 1A - Orbit

View from above orbital plane
View from above orbital plane
View from above satellite
View from above satellite

Ground track
Ground track

The orbit data is extracted from the following two-line orbital elements,

1 15159U 84081B   18293.36021681 -.00000109 +00000-0 +00000-0 0  9993
2 15159 015.4456 356.5000 0037113 332.8525 032.4276 00.98398543091104
Epoch (UTC): 20 October 2018 08:38:42
Eccentricity: 0.0037113
inclination: 15.4456°
perigee height: 36161 km
apogee height: 36478 km
right ascension of ascending node: 356.5000°
argument of perigee: 332.8525°
revolutions per day: 0.98398543
mean anomaly at epoch: 32.4276°
orbit number at epoch: 9110

The dashed part of the orbit path shows where the satellite is in the earth's shadow,  

DLR